Regional Weather Roundup
Issued by NWS Green Bay, WI

Home | Current Version | Previous Version | Text Only | Print | Product List | Glossary On
Versions: 1 2 3 4 5 6 7 8 9 10 11 12 13 14 15 16 17 18 19 20 21 22 23 24 25 26 27 28 29 30 31 32 33 34 35 36 37 38 39 40 41 42 43 44 45 46 47 48 49 50
000
ASUS43 KGRB 050911
RWRGRB

NORTH-CENTRAL AND NORTHEAST WISCONSIN REGIONAL WEATHER ROUNDUP
NATIONAL WEATHER SERVICE GREEN BAY WI
400 AM CDT WED AUG 05 2015

WIZ005-009-010>012-018-019-051000-
NORTH CENTRAL WISCONSIN

CITY           SKY/WX    TMP DP  RH WIND       PRES   REMARKS
IRONWOOD       CLEAR     45  45 100 CALM      30.06S
MANITOWISH WTR FOG       42  42 100 CALM      30.09S VSB<1/4
ARBOR VITAE    CLEAR     49  47  93 CALM      30.09S
EAGLE RIVER    CLEAR     42  42 100 CALM      30.09S
LAND O LAKES   CLEAR     40  40 100 CALM      30.10S
RHINELANDER    CLEAR     47  44  90 CALM      30.10R FOG
PHILLIPS       CLEAR     50  50 100 CALM      30.09R
ANTIGO         MOCLDY    53  51  95 CALM      30.08S
TOMAHAWK       CLOUDY    54  51  89 CALM      30.09R
MERRILL        NOT AVBL
$$

WIZ013-073-051000-
NORTHEAST WISCONSIN

CITY           SKY/WX    TMP DP  RH WIND       PRES   REMARKS
IRON MOUNTAIN  CLEAR     44  43  96 N3        30.07S FOG
MARINETTE      MOCLDY    54  48  82 N3        30.06R
OCONTO         PTCLDY    55  55 100 N3        30.06R
$$

WIZ017-030-035>037-045-051000-
CENTRAL WISCONSIN

CITY           SKY/WX    TMP DP  RH WIND       PRES   REMARKS
MEDFORD        CLEAR     50  49  98 NE3       30.08S
WAUSAU         PTCLDY    56  52  86 CALM      30.06R
MOSINEE        CLEAR     52  52 100 E5        30.07S
MARSHFIELD     CLEAR     57  51  80 NE5       30.06R
WISC RAPIDS    MOCLDY    57  53  86 CALM      30.06S
STEVENS POINT  CLOUDY    53  52  95 NE3       30.07R
WAUPACA        PTCLDY    56  55  97 CALM      30.06R
SHAWANO        CLOUDY    61  57  87 NE5       30.07S
CLINTONVILLE   CLEAR     55  54  94 CALM      30.06R
$$

WIZ038-039-048-051-051000-
FOX VALLEY

CITY           SKY/WX    TMP DP  RH WIND       PRES   REMARKS
NWS GREEN BAY  CLEAR     56  55  97 N3        30.06R
APPLETON       CLEAR     55  55 100 NE5       30.05S
OSHKOSH        CLEAR     57  52  83 W3        30.03S
FOND DU LAC    CLEAR     56  55  97 CALM      30.04S
$$

WIZ022-050-052-051000-
EAST CENTRAL WISCONSIN

CITY           SKY/WX    TMP DP  RH WIND       PRES   REMARKS
STURGEON BAY   PTCLDY    57  52  82 NE3       30.08S
MANITOWOC      PTCLDY    57  56  96 MISG      30.05R
SHEBOYGAN      PTCLDY    55  55 100 CALM      30.04R
$$

LMZ563-521-522-541>543-051000-
LAKESHORE

STATION/POSITION TIME  TEMP    WIND        PRES    VSBY  WAVE
                       AIR SEA DIR/SP/G                  HT/PER
                 (UTC) (F)     (DEG/KT/KT) (MB)    (MI)  (FT/S)
SHEBOYGAN LKSHOR 0900   62     350/  5/  6 1017.2R
KEWAUNEE LKSHORE 0800   60      30/  3/  5 1016.7R
ALGOMA MARINA    0843           60/  9/ 12   N/A
NORTHPORT PIER   0900   63     350/  7/ 12 1017.9R
N MID LAKE BUOY  0850   61 68  320/ 10/ 12 1017.2F         1
S GREEN BAY BUOY 0800   65 71   80/ 10/ 14 1018.7
SISTER BAY LKSHO 0818   58        CALM       N/A
CHAMBERS ISLAND  0800   63     340/  9/ 11 1017.6R
MENOMINEE LKSHOR 0800   59     360/  7/  8 1018.3S
$$



USA.gov is the U.S. government's official web portal to all federal, state and local government web resources and services.